Date,TemperatureHighF,TemperatureAvgF,TemperatureLowF,DewpointHighF,DewpointAvgF,DewpointLowF,HumidityHigh,HumidityAvg,HumidityLow,PressureMaxIn,PressureMinIn,WindSpeedMaxMPH,WindSpeedAvgMPH,GustSpeedMaxMPH,PrecipitationSumIn
2013-1-1,33.2,28.1,23.5,32.1,26.9,22.2,96,95,95,30.03,29.92,2,0,2,0.00
2013-1-2,39.3,34.1,31.1,33.6,30.6,28.4,96,87,78,29.93,29.75,3,0,3,0.00
2013-1-3,38.8,33.6,28.0,34.4,29.0,25.4,94,83,67,29.81,29.67,4,0,4,0.22
2013-1-4,38.6,35.1,33.0,37.3,33.8,31.7,96,95,94,29.92,29.75,0,0,1,0.15
2013-1-5,37.7,35.3,33.4,36.5,34.0,32.1,96,96,95,29.80,29.72,0,0,0,0.06
2013-1-6,38.8,34.5,31.2,37.7,33.4,30.2,96,96,96,29.80,29.62,0,0,0,0.34
2013-1-7,37.4,35.3,34.1,36.3,34.2,33.0,97,96,96,29.79,29.52,1,0,1,0.86
2013-1-8,40.1,36.8,32.9,39.2,35.9,31.8,97,97,96,29.78,29.44,5,0,5,0.39
2013-1-9,39.5,34.2,31.2,38.7,33.2,30.2,97,96,96,29.53,29.25,4,0,4,0.18
2013-1-10,31.2,31.0,30.7,30.2,30.0,29.7,96,96,96,29.54,29.52,0,0,0,0.00
2013-1-14,30.0,27.9,25.7,28.2,26.3,24.1,94,93,92,30.11,30.03,0,0,0,0.00
2013-1-15,26.9,26.4,25.7,25.4,24.9,24.1,94,94,94,30.15,30.10,0,0,0,0.00
2013-1-28,32.9,32.8,32.5,31.8,31.6,31.4,96,96,96,29.67,29.64,0,0,0,0.02
2013-1-31,34.3,33.9,33.4,33.5,33.0,32.5,97,97,96,29.92,29.90,0,0,0,0.03
2013-2-1,38.4,33.4,30.7,37.6,32.6,29.9,97,97,96,29.96,29.90,0,0,0,0.00
2013-2-2,41.9,33.2,28.9,41.0,32.3,27.9,97,96,95,29.91,29.79,0,0,0,0.00
2013-2-3,38.1,31.9,26.7,37.0,30.7,25.7,96,96,95,29.87,29.78,0,0,0,0.00
2013-2-4,45.1,36.9,31.1,42.0,35.1,30.0,96,93,83,29.79,29.51,2,0,2,0.00
2013-2-5,40.6,35.7,33.0,39.3,34.2,31.2,96,95,93,29.59,29.48,2,0,2,0.28
2013-2-6,41.0,35.9,32.9,39.4,34.5,31.8,96,95,91,29.68,29.43,0,0,2,0.12
2013-2-7,38.4,34.5,32.1,36.5,32.9,30.8,95,94,90,29.62,29.43,2,0,2,0.10
2013-2-8,36.6,32.4,29.8,33.6,30.0,28.0,93,91,87,29.84,29.81,0,0,0,0.00
2013-2-9,36.5,33.0,29.8,34.8,31.4,28.0,95,94,92,29.90,29.80,0,0,0,0.00
2013-2-10,38.4,34.5,31.6,35.3,32.5,30.3,95,92,87,29.93,29.87,1,0,1,0.00
2013-2-11,41.3,36.0,32.1,38.0,33.8,30.6,95,92,83,29.94,29.88,2,0,2,0.07
2013-2-12,42.0,37.1,33.6,41.0,35.9,32.2,96,96,95,30.01,29.93,0,0,0,0.07
2013-2-13,36.1,35.8,35.7,35.0,34.7,34.7,96,96,96,29.98,29.95,0,0,0,0.00
2013-2-14,42.0,38.0,31.8,40.7,36.7,30.5,96,95,94,30.14,30.11,0,0,0,0.00
2013-2-15,47.4,36.4,30.0,46.4,35.0,28.7,96,95,92,30.11,29.78,0,0,0,0.00
2013-2-16,41.5,35.9,31.8,40.4,34.7,30.5,96,96,95,29.81,29.75,2,0,2,0.22
2013-2-17,39.9,34.9,30.7,36.9,32.9,28.9,96,93,82,29.82,29.68,0,0,0,0.00
2013-2-18,39.9,34.0,29.1,35.2,31.2,27.5,94,90,80,29.68,29.34,0,0,2,0.00
2013-2-19,42.9,35.0,29.4,36.0,31.2,27.2,93,86,73,29.58,29.30,2,0,2,0.00
2013-2-20,30.0,29.9,29.8,28.0,27.7,27.5,92,91,91,29.59,29.58,0,0,0,0.00
2013-2-25,32.1,32.1,32.1,30.9,30.9,30.9,95,95,95,29.90,29.89,0,0,0,0.00
2013-2-26,39.3,34.3,30.9,36.9,32.6,29.6,96,94,90,29.94,29.80,2,0,2,0.20
2013-2-27,44.0,37.3,33.0,42.0,35.7,31.4,96,94,88,29.88,29.82,0,0,0,0.14
2013-2-28,41.9,39.1,35.9,40.8,38.0,34.6,97,96,95,30.00,29.79,0,0,1,0.96
2013-3-1,48.9,42.4,39.0,48.0,41.5,38.2,97,97,96,30.03,29.91,0,0,1,0.08
2013-3-2,46.7,39.6,36.3,45.9,38.7,35.5,97,97,96,29.92,29.75,0,0,0,0.00
2013-3-6,33.8,33.2,33.0,31.8,31.4,31.1,94,93,92,29.51,29.38,0,0,0,0.12
2013-3-7,45.5,36.6,29.8,41.8,34.2,28.0,95,91,79,29.66,29.51,0,0,1,0.09
2013-3-8,46.9,36.0,27.5,40.8,31.9,25.9,95,86,66,29.82,29.64,0,0,0,0.00
2013-3-9,49.8,36.5,27.5,41.2,31.0,25.4,94,82,54,30.08,29.81,0,0,1,0.00
2013-3-10,42.0,36.6,29.3,39.9,34.5,27.0,94,92,90,30.08,29.98,0,0,0,0.12
2013-3-11,48.0,42.1,37.7,44.8,40.0,36.4,95,92,83,30.00,29.82,0,0,0,0.12
2013-3-12,47.6,43.0,39.9,46.3,41.5,38.3,95,95,94,29.82,29.74,0,0,0,0.49
2013-3-13,51.9,45.1,40.8,50.3,43.7,39.4,96,95,94,29.81,29.70,0,0,0,0.12
2013-3-14,43.8,43.6,43.3,42.8,42.3,41.9,96,95,95,29.71,29.68,1,0,2,0.00
2013-3-15,51.2,46.0,42.0,46.3,43.2,40.1,93,90,82,29.78,29.74,0,0,1,0.11
2013-3-16,43.3,39.5,32.7,41.4,37.8,31.1,95,93,92,29.75,29.51,3,0,3,0.36
2013-3-17,37.9,33.9,32.1,35.6,32.1,30.6,94,93,90,29.82,29.58,0,0,0,0.21
2013-3-18,42.0,34.6,30.0,39.0,32.7,28.2,95,93,89,29.82,29.77,0,0,0,0.30
2013-3-19,44.4,36.5,30.2,37.4,32.9,28.6,94,87,68,29.79,29.27,2,0,4,0.51
2013-3-20,43.1,39.1,32.1,41.8,37.5,30.6,95,94,92,29.65,29.08,2,0,22,0.87
2013-3-21,39.0,33.3,31.2,36.0,31.3,29.7,94,92,88,29.80,29.64,2,0,2,0.25
2013-3-22,44.9,32.9,29.6,38.1,30.2,27.3,94,90,76,29.91,29.79,0,0,0,0.26
2013-3-23,42.0,32.6,27.6,35.1,29.4,25.6,93,88,73,29.92,29.83,0,0,0,0.04
2013-3-24,44.0,35.1,27.3,35.6,30.4,25.4,93,83,67,29.86,29.71,2,0,2,0.00
2013-3-25,55.5,42.0,30.7,42.3,34.4,27.6,90,76,52,29.73,29.53,1,0,2,0.00
2013-3-26,39.0,38.9,38.8,35.1,35.0,34.9,86,86,86,29.57,29.57,0,0,0,0.00
2013-4-12,38.1,38.1,38.1,35.6,35.6,35.6,91,91,91,29.38,29.38,0,0,0,0.00
2013-4-15,46.2,38.6,32.1,39.9,35.1,29.8,93,87,75,29.76,29.60,2,0,2,0.12
2013-4-16,50.7,36.8,29.1,42.9,33.8,27.3,94,89,71,30.00,29.76,3,0,3,0.08
2013-4-17,56.4,39.7,29.6,44.4,35.2,27.8,94,85,60,30.05,29.99,0,0,2,0.02
2013-4-18,49.8,42.2,36.3,44.4,39.2,33.6,93,89,79,30.04,29.86,1,0,3,0.43
2013-4-19,49.4,44.1,40.6,47.1,42.3,38.7,94,93,92,29.87,29.71,0,0,1,1.26
2013-4-20,49.8,44.2,41.0,46.6,42.2,39.3,95,93,88,29.89,29.81,2,0,2,0.12
2013-4-21,51.2,42.8,35.4,45.3,39.9,33.2,94,90,77,29.92,29.80,3,0,4,0.15
2013-4-22,60.0,44.2,32.1,44.3,36.2,30.3,94,76,42,30.05,29.92,4,0,4,0.02
2013-4-23,57.3,43.0,30.0,42.2,33.8,27.5,92,73,43,30.01,29.79,4,0,5,0.00
2013-4-24,69.4,48.2,30.7,44.0,35.5,27.9,90,66,37,29.92,29.67,4,0,4,0.00
2013-4-25,70.8,50.9,33.9,46.5,38.9,30.1,89,67,40,29.77,29.64,2,0,3,0.00
2013-4-26,75.7,53.2,0.0,48.8,38.5,-16.4,90,62,32,29.85,29.77,5,0,5,0.00
2013-4-27,57.7,46.5,0.0,44.4,38.7,-2.3,90,76,49,29.87,29.79,0,0,0,0.20
2013-4-28,54.5,47.7,0.0,48.7,43.2,-2.3,92,85,41,29.82,29.61,0,0,0,0.19
2013-4-29,42.4,40.6,38.3,40.2,38.1,35.8,92,91,88,29.66,29.57,0,0,0,0.22
2013-5-1,44.9,43.4,42.4,36.4,35.6,34.9,75,74,72,30.13,30.12,0,0,0,0.00
2013-5-2,76.8,54.2,36.1,46.7,39.6,31.8,86,62,32,30.12,29.92,3,0,3,0.00
2013-5-3,72.1,52.9,35.2,49.5,41.0,31.2,89,67,42,29.97,29.80,4,0,4,0.00
2013-5-4,78.0,56.7,37.0,47.4,40.1,33.4,90,60,27,29.84,29.61,5,0,5,0.00
2013-5-5,82.2,58.7,38.8,47.5,39.4,34.8,89,56,22,29.62,29.41,4,0,4,0.00
2013-5-6,86.9,61.7,41.3,54.0,43.9,35.6,85,57,26,29.50,29.39,6,0,6,0.00
2013-5-7,78.6,58.6,42.4,56.0,47.1,37.5,87,68,44,29.61,29.47,2,0,2,0.00
2013-5-8,73.2,54.5,44.9,57.2,47.6,41.0,90,79,54,29.71,29.61,4,0,4,0.00
2013-5-11,86.1,73.0,57.5,60.0,57.5,52.0,82,60,39,29.69,29.63,0,0,0,0.00
2013-5-12,64.0,57.3,53.4,59.4,53.5,49.5,91,87,81,29.72,29.65,0,0,0,0.10
2013-5-13,63.5,51.8,38.4,54.7,48.2,35.7,92,88,66,29.80,29.59,3,0,3,0.37
2013-5-14,38.3,38.0,37.5,35.6,35.3,34.8,90,90,90,29.80,29.79,0,0,0,0.00
2013-5-16,71.2,54.2,44.7,54.5,47.8,30.0,92,80,43,29.63,29.48,1,0,3,0.63
2013-5-18,51.9,51.9,51.9,47.5,47.5,47.5,85,85,85,29.79,29.78,0,0,0,0.00
2013-5-19,53.4,48.8,47.3,48.8,46.3,45.4,93,91,84,29.98,29.87,0,0,0,0.00
2013-5-20,70.8,62.6,51.6,55.8,52.0,46.9,84,69,56,29.75,29.50,3,0,3,0.00
2013-5-21,51.4,48.7,46.0,46.7,44.3,42.1,86,85,83,29.51,29.43,0,0,0,0.00
2013-5-22,44.2,41.8,37.7,41.5,39.0,34.7,91,89,88,29.52,29.50,0,0,0,0.22
2013-5-23,39.0,39.0,39.0,36.8,36.8,36.8,92,92,92,29.54,29.54,0,0,0,0.00
2013-5-26,64.2,60.3,56.8,55.6,51.7,49.9,83,73,62,29.58,29.56,1,0,2,0.02
2013-5-29,0.0,0.0,0.0,0.0,0.0,0.0,93,93,93,29.33,29.33,0,0,0,0.00
2013-5-31,63.6,60.7,55.2,50.3,49.1,47.3,79,66,59,29.92,29.87,2,0,2,0.53
2013-6-1,74.1,63.6,50.1,53.8,50.5,45.7,85,64,46,29.75,29.64,3,0,3,0.00
2013-6-2,66.0,53.8,45.3,53.2,46.9,42.0,91,78,58,29.70,29.64,2,0,2,0.00
2013-6-3,74.8,55.3,40.2,56.9,47.1,37.5,93,76,52,29.71,29.65,3,0,3,0.00
2013-6-4,81.6,53.2,41.5,59.9,46.1,38.7,92,80,45,29.74,29.67,1,0,4,0.00
2013-6-5,82.2,69.9,55.2,61.0,55.4,50.0,90,62,42,29.70,29.63,2,0,2,0.00
2013-6-6,82.2,62.3,46.7,62.8,52.5,43.7,92,73,48,29.67,29.61,2,0,22,0.00
2013-6-7,71.4,56.6,47.1,56.1,49.5,44.0,90,78,56,29.72,29.65,2,0,2,0.00
2013-6-18,51.4,50.8,50.3,47.7,47.3,47.0,89,88,87,29.56,29.55,0,0,0,0.00
2013-6-19,57.0,51.0,48.2,51.5,47.4,45.5,91,88,79,29.58,29.54,0,0,0,0.06
2013-7-2,90.6,77.5,61.3,73.5,64.8,56.9,86,66,52,29.71,29.65,2,0,22,0.00
2013-7-3,83.6,66.2,53.0,66.4,56.3,50.1,92,73,47,29.75,29.64,3,0,3,0.00
2013-7-4,66.7,57.4,47.8,55.4,50.6,44.4,89,79,66,29.72,29.63,1,0,1,0.00
2013-7-5,63.5,57.1,52.1,55.2,51.7,48.2,89,82,73,29.64,29.57,0,0,0,0.00
2013-7-6,77.3,62.1,50.1,61.0,54.1,47.3,92,77,56,29.60,29.49,2,0,3,0.00
2013-7-7,80.4,62.9,48.5,63.6,54.1,45.8,92,75,52,29.57,29.51,3,0,3,0.00
2013-7-14,85.1,62.3,44.2,60.7,49.8,41.1,91,67,38,29.75,29.61,1,0,3,0.00
2013-7-15,84.3,62.6,44.4,59.4,50.8,40.4,90,69,41,29.66,29.51,2,0,2,0.00
2013-7-16,86.1,64.1,46.7,66.1,56.5,43.4,91,78,48,29.56,29.45,0,0,2,0.00
2013-7-17,67.6,61.2,57.3,61.3,57.2,54.7,93,87,77,29.79,29.55,0,0,2,0.10
2013-7-18,80.6,63.4,46.7,62.9,55.2,44.0,92,76,53,29.82,29.72,1,0,2,0.00
2013-7-19,84.3,65.3,50.1,65.3,56.4,46.9,91,75,52,29.76,29.65,2,0,3,0.00
2013-7-20,84.3,66.6,0.0,65.0,56.9,-7.7,90,73,50,29.68,29.58,3,0,4,0.00
2013-7-21,84.0,66.9,56.4,65.2,57.6,51.9,89,74,50,29.59,29.52,3,0,3,0.00
2013-7-22,80.9,69.7,55.9,64.1,59.1,51.7,87,70,55,29.65,29.55,2,0,2,0.00
2013-7-23,55.9,53.3,50.9,52.0,49.8,47.7,89,88,86,29.66,29.65,0,0,0,0.00
2013-7-24,71.4,64.7,58.6,57.7,54.9,52.1,79,71,62,29.66,29.63,0,0,0,0.00
2013-7-25,84.0,57.6,48.9,62.6,51.1,45.5,92,81,46,29.71,29.65,1,0,1,0.00
2013-7-26,87.4,65.0,47.3,62.0,52.9,43.9,91,69,39,29.77,29.69,25,0,25,0.00
2013-7-27,81.6,61.5,46.2,58.8,50.2,42.6,90,69,42,29.75,29.61,1,0,2,0.00
2013-7-28,78.6,60.7,46.9,59.8,51.2,43.3,90,73,49,29.62,29.56,2,0,2,0.00
2013-7-29,77.7,62.0,53.6,60.0,53.1,49.0,86,74,53,29.63,29.56,3,0,3,0.00
2013-7-30,82.5,63.1,48.5,62.9,54.1,45.5,91,75,50,29.73,29.63,2,0,2,0.00
2013-7-31,76.2,62.5,51.6,63.7,56.1,48.4,90,80,64,29.73,29.62,0,0,1,0.00
2013-8-1,60.0,57.5,54.8,56.0,54.0,51.6,90,88,81,29.69,29.62,0,0,0,0.00
2013-8-2,65.6,56.5,53.7,56.0,52.8,51.1,92,88,70,29.73,29.68,0,0,0,0.02
2013-8-3,69.6,58.2,55.0,60.1,54.2,52.1,91,87,72,29.73,29.70,0,0,0,0.00
2013-8-4,57.5,49.2,0.0,54.1,42.8,-16.9,90,80,44,29.67,29.64,0,0,0,0.00
2013-8-5,61.1,57.6,55.7,54.2,53.1,52.5,90,85,78,29.61,29.59,0,0,0,0.00
2013-8-6,77.9,57.4,0.0,60.7,51.1,-6.3,91,81,48,29.62,29.56,0,0,0,0.00
2013-8-7,86.5,62.5,49.2,62.0,53.1,46.1,91,74,44,29.63,29.56,0,0,0,0.00
2013-8-8,70.8,54.8,50.3,60.9,50.1,46.5,90,85,71,29.64,29.62,0,0,0,0.00
2013-8-10,80.6,80.0,78.9,68.6,68.4,67.9,70,68,67,29.59,29.59,0,0,0,0.00
2013-8-17,78.0,68.9,57.0,62.1,58.0,52.8,86,69,52,29.70,29.64,4,0,4,0.00
2013-8-18,82.5,64.9,54.6,62.9,56.2,51.4,91,75,47,29.73,29.67,3,0,3,0.00
2013-8-19,83.3,63.7,50.5,62.4,54.5,47.6,91,74,48,29.72,29.65,3,0,3,0.00
2013-8-20,78.9,62.5,52.7,59.8,53.3,47.9,89,74,48,29.75,29.65,2,0,2,0.00
2013-8-21,82.0,61.7,45.3,61.7,53.1,42.3,92,76,49,29.70,29.56,2,0,2,0.00
2013-8-22,84.5,64.0,48.7,66.3,56.6,45.9,91,79,45,29.58,29.47,0,0,0,0.00
2013-8-23,76.4,63.9,57.0,64.5,57.2,51.9,92,80,61,29.52,29.48,4,0,4,0.02
2013-8-24,72.6,61.0,53.9,61.1,54.8,50.1,90,81,62,29.55,29.49,1,0,22,0.02
2013-8-25,71.2,57.2,47.3,58.4,52.8,44.6,92,86,63,29.56,29.51,0,0,0,0.06
2013-8-26,73.0,60.4,52.5,62.1,54.9,50.2,93,83,57,29.60,29.49,0,0,0,0.04
2013-8-27,74.8,63.2,54.6,66.2,59.0,52.3,93,87,70,29.59,29.44,0,0,0,0.08
2013-8-28,60.8,59.9,59.1,58.2,57.5,56.8,92,92,91,29.49,29.46,0,0,0,0.11
2013-8-29,68.9,63.4,58.6,65.4,60.8,56.9,94,91,88,29.68,29.54,2,0,2,0.24
2013-8-30,73.7,62.3,53.4,64.5,58.0,50.8,94,86,69,29.77,29.67,0,0,22,0.02
2013-8-31,81.1,62.0,48.3,66.1,56.1,46.4,95,83,57,29.70,29.49,0,0,2,0.00
2013-9-1,81.1,63.9,51.6,66.6,57.7,49.3,93,81,58,29.53,29.43,0,0,0,0.00
2013-9-2,80.4,63.5,53.2,64.1,56.9,50.6,93,81,56,29.57,29.49,0,0,0,0.00
2013-9-3,69.6,61.2,57.7,64.1,57.8,55.0,92,89,80,29.65,29.55,0,0,0,0.12
2013-9-4,73.9,61.7,55.2,64.6,57.6,52.9,93,87,72,29.66,29.61,0,0,0,0.00
2013-9-5,63.6,59.1,56.4,59.4,56.5,54.3,94,91,86,29.65,29.54,0,0,0,1.37
2013-9-6,60.0,57.0,54.3,58.0,55.0,52.5,94,93,92,29.74,29.59,0,0,0,1.35
2013-9-7,71.7,59.9,50.0,64.9,56.6,48.2,95,89,77,29.74,29.62,0,0,22,0.00
2013-9-8,77.1,63.0,53.9,64.5,58.0,51.6,93,85,64,29.72,29.64,0,0,0,0.00
2013-9-9,77.9,61.0,49.6,65.6,56.1,47.3,95,85,64,29.67,29.59,0,0,0,0.00
2013-9-10,80.7,64.3,52.5,67.8,59.1,50.2,94,84,61,29.61,29.51,0,0,0,0.00
2013-9-11,88.5,67.5,54.6,71.4,59.1,52.0,95,78,40,29.59,29.53,0,0,0,0.00
2013-9-12,84.7,65.3,52.7,68.0,58.2,50.0,93,79,54,29.62,29.53,0,0,0,0.00
2013-9-13,78.4,62.7,52.8,66.5,57.4,50.2,92,84,64,29.58,29.49,0,0,0,0.00
2013-9-14,77.5,63.8,54.3,65.8,58.7,51.7,92,84,65,29.49,29.36,0,0,0,0.00
2013-9-15,68.7,60.2,54.5,62.6,57.1,52.1,93,90,80,29.47,29.34,0,0,0,0.07
2013-9-16,60.6,57.1,54.8,57.7,54.7,52.8,93,92,89,29.57,29.46,0,0,0,0.21
2013-9-17,58.6,54.1,51.0,53.3,51.2,48.8,94,90,80,29.56,29.46,0,0,0,0.31
2013-9-18,62.7,53.1,44.6,54.7,48.7,41.9,93,86,68,29.69,29.56,0,0,0,0.02
2013-9-19,73.2,54.7,41.3,56.9,46.9,38.9,93,78,46,29.66,29.41,0,0,0,0.00
2013-9-20,69.0,55.5,43.3,58.1,49.9,40.6,92,82,59,29.43,29.25,0,0,0,0.02
2013-9-21,64.2,55.7,51.6,56.6,52.0,49.3,92,88,68,29.36,29.29,0,0,0,0.14
2013-9-22,53.2,50.3,0.0,50.3,48.2,-2.0,94,92,90,29.42,29.25,0,0,0,0.75
2013-9-23,52.7,49.6,47.1,50.6,47.7,45.2,94,93,92,29.60,29.42,0,0,0,0.31
2013-9-24,55.2,47.4,39.9,50.8,44.6,38.0,94,90,78,29.58,29.45,0,0,0,0.18
2013-9-25,52.5,46.9,41.7,49.3,44.5,39.5,94,91,88,29.63,29.44,0,0,0,0.08
2013-9-26,55.2,45.3,37.2,49.7,42.3,35.3,94,89,81,29.77,29.63,0,0,22,0.00
2013-9-27,49.1,45.4,39.5,47.4,43.7,37.4,94,94,92,29.76,29.50,0,0,0,0.31
2013-9-28,54.3,50.4,46.2,52.8,49.0,44.8,96,95,94,29.50,29.05,0,0,0,2.25
2013-9-29,46.7,45.6,44.4,45.4,44.1,42.8,95,95,94,29.26,28.91,0,0,0,0.02
2013-9-30,46.5,45.6,44.9,45.2,44.2,43.6,95,95,95,29.46,29.34,0,0,0,0.03
2013-10-4,56.3,49.1,40.8,50.0,45.0,38.6,92,86,68,30.00,29.97,0,0,0,0.00
2013-10-5,60.9,47.6,37.5,53.4,44.0,35.9,95,88,64,29.98,29.76,0,0,0,0.00
2013-10-6,65.4,49.9,40.6,57.1,44.4,38.7,94,83,47,29.77,29.56,0,0,0,0.00
2013-10-7,49.8,46.6,44.4,47.2,44.4,40.8,93,92,87,29.67,29.54,0,0,0,0.39
2013-10-8,46.9,42.7,36.5,45.0,40.9,34.6,94,93,91,29.68,29.54,0,0,0,0.33
2013-10-9,51.4,40.3,31.2,47.6,37.9,29.7,95,92,86,29.73,29.56,0,0,0,0.00
2013-10-10,39.7,38.1,36.6,37.8,36.2,34.7,93,93,93,29.58,29.56,0,0,0,0.00
2013-10-14,53.2,45.7,37.9,47.1,42.0,35.7,93,87,78,29.98,29.94,0,0,0,0.00
2013-10-15,54.6,42.8,33.6,48.3,39.2,31.7,95,88,62,29.98,29.77,0,0,0,0.00
2013-10-16,54.3,42.8,34.3,48.9,39.9,32.4,94,90,80,29.79,29.73,0,0,22,0.00
2013-10-17,56.1,43.7,34.8,50.3,41.0,33.2,95,90,80,29.85,29.79,0,0,0,0.00
2013-10-18,57.5,45.3,36.8,50.2,42.1,35.2,95,89,71,29.84,29.75,0,0,0,0.00
2013-10-19,57.3,44.5,35.7,50.3,41.5,34.1,95,89,75,29.77,29.72,0,0,0,0.00
2013-10-20,58.8,45.0,35.4,52.1,42.0,33.8,95,90,74,29.78,29.72,0,0,0,0.00
2013-10-21,62.4,48.3,39.0,55.4,45.3,37.4,95,90,75,29.75,29.69,0,0,0,0.00
2013-10-22,63.5,50.0,41.5,54.9,46.0,39.6,94,87,67,29.71,29.63,0,0,0,0.00
2013-10-23,63.1,49.4,41.3,53.8,45.1,39.2,93,86,64,29.65,29.58,0,0,0,0.00
2013-10-24,61.7,48.5,40.2,51.8,44.2,37.8,93,86,66,29.71,29.61,0,0,0,0.00
2013-10-25,50.5,43.4,35.7,47.6,41.2,33.6,93,92,89,29.87,29.71,0,0,0,0.00
2013-10-26,49.6,43.0,36.6,45.5,40.5,34.5,93,91,85,29.90,29.77,0,0,0,0.00
2013-10-27,43.3,40.8,39.5,41.7,39.0,37.6,94,94,93,29.77,29.47,0,0,0,0.21
2013-11-22,30.0,30.0,30.0,29.7,29.7,29.7,99,99,99,29.97,29.97,0,0,0,0.00
2013-11-23,41.9,33.9,29.4,41.6,33.6,29.2,99,99,99,29.96,29.75,0,0,2,0.00
2013-11-24,39.9,31.6,29.1,39.6,31.3,28.8,99,99,99,29.75,29.71,0,0,0,0.00
2013-11-27,48.5,39.0,32.1,48.2,38.8,31.9,99,99,97,29.63,29.56,0,0,0,0.00
2013-11-28,41.5,33.1,29.6,41.2,32.8,29.4,99,99,99,29.79,29.62,0,0,0,0.00
2013-11-29,43.8,36.5,29.3,43.6,36.3,29.0,99,99,99,29.91,29.78,0,0,0,0.00
2013-11-30,44.2,40.9,38.3,43.9,40.6,38.0,99,99,99,29.93,29.75,0,0,0,0.39
2013-12-1,46.5,44.6,41.5,46.3,44.3,41.2,99,99,99,29.75,29.46,0,0,1,2.33
2013-12-2,31.1,30.9,30.3,30.8,30.6,30.1,99,99,99,29.58,29.56,0,0,0,0.00
2013-12-3,32.5,30.0,25.5,32.2,29.7,25.2,99,99,99,29.83,29.58,0,0,0,0.00
2013-12-4,26.4,22.7,19.2,26.1,22.4,18.9,99,99,99,29.86,29.81,0,0,0,0.00
2013-12-5,28.5,22.0,17.2,28.3,21.8,16.9,99,99,99,29.83,29.69,0,0,0,0.00
2013-12-6,21.9,19.4,17.4,20.5,17.1,12.2,99,91,79,29.69,29.58,3,0,5,0.00
2013-12-7,17.9,13.1,9.3,17.5,12.2,9.0,99,96,77,29.93,29.65,0,0,1,0.00
2013-12-8,19.5,13.5,8.2,19.3,13.2,8.0,99,99,99,30.09,29.92,0,0,0,0.00
2013-12-9,28.5,21.2,11.1,28.3,21.0,10.8,99,99,99,30.09,29.99,0,0,0,0.00
2013-12-10,34.7,30.6,27.5,34.4,30.3,27.2,99,99,99,30.00,29.92,0,0,0,0.04
2013-12-11,34.3,29.1,24.9,34.0,28.9,24.7,99,99,99,29.93,29.73,0,0,0,0.02
2013-12-12,31.1,30.7,30.3,30.8,30.4,30.1,99,99,99,29.73,29.71,0,0,0,0.00